Change the Weather History Date:

Tuesday, September 11, 2012

  Actual Average Record
Temperature  
Mean Temperature 78 °F -  
Max Temperature 93 °F 82 °F 96 °F (1999)
Min Temperature 64 °F 60 °F 57 °F (1998)
Cooling Degree Days 14    
Growing Degree Days 28 (Base 50)    
Moisture  
Dew Point 54 °F    
Average Humidity 48    
Maximum Humidity 88    
Minimum Humidity 17    
Precipitation  
Precipitation 0.00 in - - ()
Sea Level Pressure  
Sea Level Pressure 30.01 in    
Wind  
Wind Speed 3 mph ()    
Max Wind Speed 8 mph    
Max Gust Speed -    
Averages and records for this station are not official NWS values.
T = Trace of Precipitation, MM = Missing Value Source: Averaged Metar Reports

Daily Weather History Graph

Daily Weather History Graph

Search for Another Location

Airport or City:

Trip Planner

Search our weather history database for the weather conditions in past years. The results will help you decide how hot, cold, wet, or windy it might be!

Date:

Astronomy

Sep. 11, 2012 Rise Set
Actual Time 8:02 AM CEST 8:37 PM CEST
Civil Twilight 7:36 AM CEST 9:03 PM CEST
Nautical Twilight 7:05 AM CEST 9:34 PM CEST
Astronomical Twilight 6:33 AM CEST 10:05 PM CEST
Moon 3:11 AM CEST (9/11) 5:33 PM CEST (9/11)
Length of Visible Light 13h 27m
Length of Day
12h 34m
Waning Crescent, 24% of the Moon is Illuminated
Sep 11
Waning Crescent
Sep 16
New
Sep 22
First Quarter
Sep 30
Full
Oct 8
Last Quarter

Hourly Weather History & Observations

Time (CEST) Temp. Heat Index Dew Point Humidity Pressure Visibility Wind Dir Wind Speed Gust Speed Precip Events Conditions
12:00 AM 73.4 °F - 57.2 °F 57% 30.04 in - SSW 3.5 mph - N/A   Clear
12:30 AM 73.4 °F - 57.2 °F 57% 30.04 in - SSW 5.8 mph - N/A   Clear
1:00 AM 71.6 °F - 59.0 °F 64% 30.04 in - SSW 6.9 mph - N/A   Clear
4:30 AM 68.0 °F - 60.8 °F 78% 30.01 in - South 4.6 mph - N/A   Clear
5:00 AM 68.0 °F - 60.8 °F 78% 30.01 in - South 4.6 mph - N/A   Clear
5:30 AM 66.2 °F - 60.8 °F 83% 30.01 in - Variable 1.2 mph - N/A   Clear
6:00 AM 66.2 °F - 60.8 °F 83% 30.01 in - Calm Calm - N/A   Clear
6:30 AM 66.2 °F - 60.8 °F 83% 30.01 in - NE 1.2 mph - N/A   Clear
7:00 AM 66.2 °F - 60.8 °F 83% 30.01 in - NE 1.2 mph - N/A   Clear
7:30 AM 64.4 °F - 60.8 °F 88% 30.04 in - Calm Calm - N/A   Clear
8:00 AM 66.2 °F - 60.8 °F 83% 30.04 in - ENE 1.2 mph - N/A   Clear
8:30 AM 66.2 °F - 60.8 °F 83% 30.04 in - Calm Calm - N/A   Clear
9:00 AM 68.0 °F - 60.8 °F 78% 30.04 in - Calm Calm - N/A   Clear
9:30 AM 69.8 °F - 62.6 °F 78% 30.04 in - Variable 1.2 mph - N/A   Clear
10:00 AM 71.6 °F - 62.6 °F 73% 30.06 in - NE 3.5 mph - N/A   Clear
10:30 AM 73.4 °F - 62.6 °F 69% 30.06 in - NE 3.5 mph - N/A   Clear
11:00 AM 75.2 °F - 60.8 °F 61% 30.06 in - Variable 2.3 mph - N/A   Clear
11:30 AM 77.0 °F - 59.0 °F 54% 30.06 in - Variable 2.3 mph - N/A   Clear
12:00 PM 78.8 °F - 57.2 °F 47% 30.06 in - NE 3.5 mph - N/A   Clear
12:30 PM 82.4 °F 81.7 °F 55.4 °F 39% 30.06 in - ENE 3.5 mph - N/A   Clear
1:00 PM 84.2 °F 82.8 °F 53.6 °F 35% 30.06 in - East 4.6 mph - N/A   Clear
1:30 PM 86.0 °F 84.2 °F 53.6 °F 33% 30.04 in - Variable 2.3 mph - N/A   Clear
2:00 PM 87.8 °F - 51.8 °F 29% 30.04 in - Variable 1.2 mph - N/A   Clear
2:30 PM 87.8 °F - 51.8 °F 29% 30.01 in - NE 1.2 mph - N/A   Clear
3:00 PM 91.4 °F - 51.8 °F 26% 30.01 in - Calm Calm - N/A   Clear
3:30 PM 91.4 °F - 50.0 °F 24% 30.01 in - Variable 2.3 mph - N/A   Clear
4:00 PM 91.4 °F - 50.0 °F 24% 29.98 in - Calm Calm - N/A   Clear
4:30 PM 91.4 °F - 48.2 °F 23% 29.98 in - WNW 2.3 mph - N/A   Clear
5:00 PM 91.4 °F - 44.6 °F 20% 29.98 in - NE 2.3 mph - N/A   Clear
5:30 PM 93.2 °F - 42.8 °F 17% 29.98 in - ENE 1.2 mph - N/A   Clear
6:00 PM 93.2 °F - 42.8 °F 17% 29.95 in - NE 3.5 mph - N/A   Clear
6:30 PM 93.2 °F - 42.8 °F 17% 29.95 in - Variable 1.2 mph - N/A   Clear
7:00 PM 93.2 °F - 42.8 °F 17% 29.95 in - NNE 2.3 mph - N/A   Clear
7:30 PM 93.2 °F - 42.8 °F 17% 29.95 in - Calm Calm - N/A   Clear
8:00 PM 91.4 °F - 42.8 °F 18% 29.95 in - Variable 2.3 mph - N/A   Clear
8:30 PM 89.6 °F - 46.4 °F 22% 29.95 in - NW 3.5 mph - N/A   Clear
9:00 PM 87.8 °F - 46.4 °F 24% 29.98 in - NW 3.5 mph - N/A   Clear
9:30 PM 86.0 °F - 46.4 °F 25% 29.98 in - Calm Calm - N/A   Clear
10:30 PM 82.4 °F 81.4 °F 53.6 °F 37% 30.01 in - West 8.1 mph - N/A   Clear
11:00 PM 82.4 °F 81.7 °F 55.4 °F 39% 30.01 in - West 6.9 mph - N/A   Clear
11:30 PM 80.6 °F 80.5 °F 55.4 °F 42% 30.01 in - West 5.8 mph - N/A   Clear